Location: Holbach
(51.5399°N, 10.6036°E)
Time: 03:51:27
(UTC+00:00)

Cosmos 372 Rocket - Pass Details

Date: 18 September 2020
Orbit: 739 x 767 km, 74.1° (Epoch: 22 October)

Event Time Altitude Azimuth Distance (km) Brightness Sun altitude
Rises 18:44:25 0° 189° (S) 3,224 7.1 -13.0°
Reaches altitude 10° 18:46:49 10° 186° (S) 2,301 6.3 -13.4°
Maximum altitude 18:51:55 57° 108° (ESE) 901 4.0 -14.1°
Drops below altitude 10° 18:57:02 10° 31° (NNE) 2,306 6.4 -14.9°
Sets 18:59:26 0° 28° (NNE) 3,232 7.2 -15.2°
